Regional Weather Roundup
Issued by NWS

Home | Current Version | Previous Version | Graphics & Text | Print | Product List | Glossary On
Versions: 1 2 3 4 5 6 7 8 9 10 11 12 13 14 15 16 17 18 19 20 21 22 23 24 25 26 27
000
ASUS45 KBOI 300310
RWRID

IDAHO REGIONAL WEATHER ROUNDUP
NATIONAL WEATHER SERVICE BOISE ID
900 PM MDT FRI APR 29 2016

NOTE: "FAIR" INDICATES FEW OR NO CLOUDS BELOW 12000 FEET
WITH NO SIGNIFICANT WEATHER AND/OR OBSTRUCTIONS TO VISIBILITY

IDZ012-014-300400-
SOUTHWEST IDAHO


CITY           SKY/WX    TMP DP  RH WIND       PRES   REMARKS
BOISE          PTCLDY    53  38  56 N16       29.89R
CALDWELL       PTCLDY    54  38  54 NW8       29.92R
MOUNTAIN HOME  MOCLDY    54  37  52 NW22G29   29.87R
$$

IDZ016-017-300400-
SOUTHCENTRAL IDAHO


CITY           SKY/WX    TMP DP  RH WIND       PRES   REMARKS
BURLEY         MOCLDY    46  40  79 CALM      29.84R
JEROME         LGT RAIN  49  39  68 SW14      29.85R
TWIN FALLS     CLOUDY    51  35  54 W17       29.87R
$$

IDZ019>023-300400-
SOUTHEAST IDAHO


CITY           SKY/WX    TMP DP  RH WIND       PRES   REMARKS
IDAHO FALLS    PTCLDY    45  36  70 SW5       29.87R
POCATELLO      MOCLDY    45  41  86 S6        29.86S
REXBURG        CLOUDY    45  36  70 NE5       29.87R
$$

IDZ006-010-011-018-031-032-300400-
CENTRAL IDAHO MOUNTAINS


CITY           SKY/WX    TMP DP  RH WIND       PRES   REMARKS
MCCALL         CLEAR     41  32  70 N8        29.93R
HAILEY         LGT RAIN  41  39  93 CALM      29.90R
STANLEY          N/A     41  32  70 NW3       29.92R
SALMON         CLOUDY    45  34  65 SW5       29.91R
CHALLIS        CLOUDY    47  31  53 N13       29.89R
$$

IDZ002-004-006-007-026-300400-
NORTHERN IDAHO


CITY           SKY/WX    TMP DP  RH WIND       PRES   REMARKS
LEWISTON       LGT RAIN  50  47  89 CALM      30.02R
LOWELL           N/A     47  46  97 CALM      30.04R
COEUR D`ALENE  CLOUDY    50  43  76 NW5       29.98R
MULLAN PASS    LGT SNOW  32  31  96 NW3       29.98R FOG
$$




USA.gov is the U.S. government's official web portal to all federal, state and local government web resources and services.